DW6201 Weather Reports


Display with metric or nautical units.
time (UTC)temp
F
wind
direction
speed
MPH
gust
MPH
rain 1hr
in
rain 24hr
in
rain mn
in
humidity
%
barometer
mb
20260502200000 64 221 3.0 3.0 0.00 0.00 0.00 33 1016.9
20260502195500 64 144 1.0 1.0 0.00 0.00 0.00 33 1016.9
20260502195000 64 0 0.0 0.0 0.00 0.00 0.00 34 1017.3
20260502194500 64 191 3.0 3.0 0.00 0.00 0.00 32 1017.3
20260502194000 64 196 2.0 2.0 0.00 0.00 0.00 33 1017.3
20260502193501 64 209 2.0 2.0 0.00 0.00 0.00 34 1017.3
20260502193000 63 0 0.0 0.0 0.00 0.00 0.00 34 1017.6
20260502192500 63 0 0.0 0.0 0.00 0.00 0.00 35 1017.6
20260502192000 63 271 3.0 3.0 0.00 0.00 0.00 34 1017.6
20260502191500 63 0 0.0 0.0 0.00 0.00 0.00 35 1017.9
20260502191000 62 242 1.0 1.0 0.00 0.00 0.00 35 1017.9
20260502190500 61 304 3.0 3.0 0.00 0.00 0.00 35 1017.9
20260502190001 61 0 0.0 0.0 0.00 0.00 0.00 34 1017.9
20260502185500 61 182 1.0 1.0 0.00 0.00 0.00 34 1017.9
20260502185000 61 245 1.0 1.0 0.00 0.00 0.00 35 1018.3
20260502184500 61 0 0.0 0.0 0.00 0.00 0.00 36 1018.3
20260502184000 61 221 1.0 1.0 0.00 0.00 0.00 36 1018.3
20260502183500 60 319 2.0 2.0 0.00 0.00 0.00 35 1018.3
20260502183000 60 0 0.0 0.0 0.00 0.00 0.00 37 1018.3
20260502182500 60 184 1.0 1.0 0.00 0.00 0.00 35 1018.3
20260502182000 60 252 2.0 2.0 0.00 0.00 0.00 37 1018.6
20260502181500 59 333 4.0 4.0 0.00 0.00 0.00 35 1018.6
20260502181000 59 326 2.0 2.0 0.00 0.00 0.00 35 1019.0
20260502180500 59 0 0.0 0.0 0.00 0.00 0.00 36 1019.0
20260502170500 58 329 1.0 1.0 0.00 0.00 0.00 37 1019.6
20260502164000 56 190 1.0 1.0 0.00 0.00 0.00 38 1020.0
20260502163500 56 0 0.0 0.0 0.00 0.00 0.00 38 1020.0
20260502163000 56 195 1.0 1.0 0.00 0.00 0.00 39 1020.0
20260502162500 56 186 3.0 3.0 0.00 0.00 0.00 38 1020.0
20260502162000 56 259 4.0 4.0 0.00 0.00 0.00 39 1020.3
20260502161500 55 202 3.0 3.0 0.00 0.00 0.00 39 1020.3
20260502161000 55 261 1.0 1.0 0.00 0.00 0.00 39 1020.3
20260502160500 55 273 3.0 3.0 0.00 0.00 0.00 41 1020.3
20260502152000 53 313 4.0 4.0 0.00 0.00 0.00 44 1020.7
20260502151500 53 311 3.0 3.0 0.00 0.00 0.00 45 1020.7
20260502151000 53 319 1.0 1.0 0.00 0.00 0.00 45 1020.7
20260502150501 53 257 1.0 1.0 0.00 0.00 0.00 47 1020.7
20260502130501 43 275 3.0 3.0 0.00 0.00 0.00 72 1021.3
20260502123500 37 0 0.0 0.0 0.00 0.00 0.00 77 1021.3
20260502123001 36 0 0.0 0.0 0.00 0.00 0.00 78 1021.3
20260502122500 36 0 0.0 0.0 0.00 0.00 0.00 78 1021.3
20260502122000 35 0 0.0 0.0 0.00 0.00 0.00 78 1021.3
20260502121500 34 0 0.0 0.0 0.00 0.00 0.00 79 1021.3
20260502121000 34 0 0.0 0.0 0.00 0.00 0.00 79 1021.0
20260502120501 33 0 0.0 0.0 0.00 0.00 0.00 79 1021.3
20260502115500 32 0 0.0 0.0 0.00 0.00 0.00 79 1021.3
20260502115001 32 0 0.0 0.0 0.00 0.00 0.00 79 1021.0
20260502114501 32 0 0.0 0.0 0.00 0.00 0.00 79 1021.0
20260502114001 31 0 0.0 0.0 0.00 0.00 0.00 79 1021.0
20260502113500 31 0 0.0 0.0 0.00 0.00 0.00 79 1021.0
20260502113000 31 0 0.0 0.0 0.00 0.00 0.00 79 1021.0
20260502112500 31 0 0.0 0.0 0.00 0.00 0.00 78 1021.0
20260502112000 31 0 0.0 0.0 0.00 0.00 0.00 78 1021.0
20260502111500 31 0 0.0 0.0 0.00 0.00 0.00 78 1021.0
20260502111000 31 0 0.0 0.0 0.00 0.00 0.00 78 1021.0
20260502110500 31 0 0.0 0.0 0.00 0.00 0.00 78 1021.0
20260502110000 31 0 0.0 0.0 0.00 0.00 0.00 77 1021.0
20260502105501 31 0 0.0 0.0 0.00 0.00 0.00 77 1021.0
20260502105000 31 0 0.0 0.0 0.00 0.00 0.00 77 1021.0
20260502104500 31 0 0.0 0.0 0.00 0.00 0.00 77 1021.0
20260502104001 31 0 0.0 0.0 0.00 0.00 0.00 77 1021.0
20260502103500 31 0 0.0 0.0 0.00 0.00 0.00 76 1021.0
20260502103000 31 0 0.0 0.0 0.00 0.00 0.00 76 1021.0
20260502102500 32 0 0.0 0.0 0.00 0.00 0.00 76 1021.0
20260502102000 32 0 0.0 0.0 0.00 0.00 0.00 77 1021.0
20260502101500 32 0 0.0 0.0 0.00 0.00 0.00 77 1021.0
20260502101001 32 0 0.0 0.0 0.00 0.00 0.00 77 1021.0
20260502100500 32 0 0.0 0.0 0.00 0.00 0.00 76 1021.0
20260502091500 32 0 0.0 0.0 0.00 0.00 0.00 75 1021.0
20260502091001 33 0 0.0 0.0 0.00 0.00 0.00 75 1021.0
20260502090500 33 0 0.0 0.0 0.00 0.00 0.00 75 1021.0
20260502071501 34 0 0.0 0.0 0.00 0.00 0.00 72 1021.0
20260502071000 34 0 0.0 0.0 0.00 0.00 0.00 72 1021.0
20260502070500 34 0 0.0 0.0 0.00 0.00 0.00 72 1021.0
20260502070001 35 0 0.0 0.0 0.00 0.00 0.00 72 1021.0
20260502065501 35 0 0.0 0.0 0.00 0.00 0.00 71 1021.3
20260502065001 35 0 0.0 0.0 0.00 0.00 0.00 71 1021.3
20260502064500 35 0 0.0 0.0 0.00 0.00 0.00 71 1021.3
20260502064000 35 0 0.0 0.0 0.00 0.00 0.00 71 1021.3
20260502063500 35 0 0.0 0.0 0.00 0.00 0.00 70 1021.3
20260502063000 35 0 0.0 0.0 0.00 0.00 0.00 70 1021.3
20260502062500 35 0 0.0 0.0 0.00 0.00 0.00 70 1021.3
20260502062000 35 0 0.0 0.0 0.00 0.00 0.00 70 1021.3
20260502061500 35 0 0.0 0.0 0.00 0.00 0.00 70 1021.3
20260502061000 35 0 0.0 0.0 0.00 0.00 0.00 69 1021.3
20260502060501 36 0 0.0 0.0 0.00 0.00 0.00 69 1021.3
20260502060000 36 0 0.0 0.0 0.00 0.00 0.00 68 1021.3
20260502055501 36 0 0.0 0.0 0.00 0.00 0.00 68 1021.3
20260502054500 36 0 0.0 0.0 0.00 0.00 0.00 67 1021.3
20260502053500 36 0 0.0 0.0 0.00 0.00 0.00 66 1021.3
20260502053000 37 0 0.0 0.0 0.00 0.00 0.00 66 1021.3
20260502052500 37 0 0.0 0.0 0.00 0.00 0.00 66 1021.3
20260502052001 37 0 0.0 0.0 0.00 0.00 0.00 65 1021.3
20260502051500 37 0 0.0 0.0 0.00 0.00 0.00 65 1021.0
20260502051000 37 0 0.0 0.0 0.00 0.00 0.00 64 1021.0
20260502050501 38 0 0.0 0.0 0.00 0.00 0.00 64 1021.0
20260502050000 38 0 0.0 0.0 0.00 0.00 0.00 63 1021.0
20260502045000 38 0 0.0 0.0 0.00 0.00 0.00 63 1021.0
20260502044502 38 0 0.0 0.0 0.00 0.00 0.00 62 1021.0
20260502044000 39 0 0.0 0.0 0.00 0.00 0.00 62 1021.0
20260502043500 39 0 0.0 0.0 0.00 0.00 0.00 61 1021.0
20260502043000 39 0 0.0 0.0 0.00 0.00 0.00 60 1021.0
20260502042500 39 0 0.0 0.0 0.00 0.00 0.00 60 1021.0
20260502042000 39 0 0.0 0.0 0.00 0.00 0.00 59 1021.0
20260502041500 40 0 0.0 0.0 0.00 0.00 0.00 59 1021.0
20260502041000 40 0 0.0 0.0 0.00 0.00 0.00 58 1021.0
20260502040501 40 0 0.0 0.0 0.00 0.00 0.00 58 1021.0
20260502040001 40 0 0.0 0.0 0.00 0.00 0.00 58 1021.3
20260502035500 40 0 0.0 0.0 0.00 0.00 0.00 57 1021.3
20260502035000 41 0 0.0 0.0 0.00 0.00 0.00 57 1021.3
20260502034500 41 0 0.0 0.0 0.00 0.00 0.00 56 1021.3
20260502034001 41 0 0.0 0.0 0.00 0.00 0.00 55 1021.3
20260502033500 41 0 0.0 0.0 0.00 0.00 0.00 55 1021.3
20260502033001 42 0 0.0 0.0 0.00 0.00 0.00 54 1021.0
20260502032500 42 0 0.0 0.0 0.00 0.00 0.00 54 1021.0
20260502032000 42 0 0.0 0.0 0.00 0.00 0.00 53 1021.0
20260502031500 42 0 0.0 0.0 0.00 0.00 0.00 52 1021.0
20260502031000 43 0 0.0 0.0 0.00 0.00 0.00 51 1021.0
20260502030500 43 0 0.0 0.0 0.00 0.00 0.00 51 1021.0
20260502030000 43 0 0.0 0.0 0.00 0.00 0.00 50 1021.0
20260502025000 44 0 0.0 0.0 0.00 0.00 0.00 49 1021.0
20260502024500 44 0 0.0 0.0 0.00 0.00 0.00 48 1021.0
20260502024000 44 0 0.0 0.0 0.00 0.00 0.00 47 1021.0
20260502023500 45 0 0.0 0.0 0.00 0.00 0.00 46 1021.0
20260502023000 45 0 0.0 0.0 0.00 0.00 0.00 45 1021.0
20260502022500 46 0 0.0 0.0 0.00 0.00 0.00 44 1021.0
20260502022000 46 0 0.0 0.0 0.00 0.00 0.00 44 1021.0
20260502021500 46 0 0.0 0.0 0.00 0.00 0.00 44 1021.0
20260502021000 47 0 0.0 0.0 0.00 0.00 0.00 43 1020.7
20260502020500 47 0 0.0 0.0 0.00 0.00 0.00 43 1020.7
20260502020000 47 0 0.0 0.0 0.00 0.00 0.00 43 1020.7
20260502015500 47 0 0.0 0.0 0.00 0.00 0.00 42 1020.7
20260502015000 48 0 0.0 0.0 0.00 0.00 0.00 42 1020.7
20260502014500 48 0 0.0 0.0 0.00 0.00 0.00 42 1020.7
20260502014000 48 0 0.0 0.0 0.00 0.00 0.00 41 1020.7
20260502013500 48 0 0.0 0.0 0.00 0.00 0.00 41 1020.7
20260502013000 48 0 0.0 0.0 0.00 0.00 0.00 41 1020.7
20260502012500 48 0 0.0 0.0 0.00 0.00 0.00 40 1020.3
20260502012001 49 0 0.0 0.0 0.00 0.00 0.00 40 1020.3
20260502011501 49 0 0.0 0.0 0.00 0.00 0.00 40 1020.3
20260502011000 49 0 0.0 0.0 0.00 0.00 0.00 40 1020.3
20260502010500 49 0 0.0 0.0 0.00 0.00 0.00 40 1020.3
20260502010000 49 349 2.0 2.0 0.00 0.00 0.00 39 1020.3
20260502005500 49 0 0.0 0.0 0.00 0.00 0.00 39 1020.3
20260502005000 49 0 0.0 0.0 0.00 0.00 0.00 38 1020.3
20260502004500 49 349 1.0 1.0 0.00 0.00 0.00 38 1020.3
20260502004000 49 0 0.0 0.0 0.00 0.00 0.00 38 1020.3
20260502003500 50 26 1.0 1.0 0.00 0.00 0.00 38 1020.3
20260502003000 50 348 1.0 1.0 0.00 0.00 0.00 38 1020.3
20260502002500 50 0 0.0 0.0 0.00 0.00 0.00 38 1020.3
20260502002000 50 348 1.0 1.0 0.00 0.00 0.00 37 1020.0
20260502001500 50 0 0.0 0.0 0.00 0.00 0.00 37 1020.0
20260502001000 50 342 1.0 1.0 0.00 0.00 0.00 37 1020.3
20260502000500 50 42 2.0 2.0 0.00 0.00 0.00 38 1020.0
20260502000000 50 0 0.0 0.0 0.00 0.00 0.00 38 1020.0
20260501235500 50 67 2.0 2.0 0.00 0.00 0.00 39 1020.0
20260501235000 50 32 1.0 1.0 0.00 0.00 0.00 37 1020.0
20260501234500 50 329 2.0 2.0 0.00 0.00 0.00 37 1020.0
20260501234001 50 329 1.0 1.0 0.00 0.00 0.00 36 1020.0
20260501233500 51 0 0.0 0.0 0.00 0.00 0.00 36 1020.0
20260501233000 51 333 1.0 1.0 0.00 0.00 0.00 37 1020.0
20260501232500 50 0 0.0 0.0 0.00 0.00 0.00 37 1020.0
20260501232000 50 0 0.0 0.0 0.00 0.00 0.00 38 1020.0
20260501231500 50 45 2.0 2.0 0.00 0.00 0.00 38 1020.0
20260501231000 51 0 0.0 0.0 0.00 0.00 0.00 37 1020.0
20260501230500 51 0 0.0 0.0 0.00 0.00 0.00 37 1020.0
20260501230001 51 319 2.0 2.0 0.00 0.00 0.00 37 1020.0
20260501225500 50 319 1.0 1.0 0.00 0.00 0.00 37 1020.0
20260501225000 50 0 0.0 0.0 0.00 0.00 0.00 39 1020.0
20260501224500 50 0 0.0 0.0 0.00 0.00 0.00 37 1020.0
20260501224000 50 321 2.0 2.0 0.00 0.00 0.00 37 1020.0
20260501223500 50 0 0.0 0.0 0.00 0.00 0.00 39 1020.0
20260501223001 50 0 0.0 0.0 0.00 0.00 0.00 40 1020.0
20260501222500 50 338 3.0 3.0 0.00 0.00 0.00 39 1020.0
20260501222000 50 342 1.0 1.0 0.00 0.00 0.00 38 1020.0
20260501221500 50 58 1.0 1.0 0.00 0.00 0.00 38 1020.0
20260501221000 50 0 0.0 0.0 0.00 0.00 0.00 39 1020.0
20260501220501 50 0 0.0 0.0 0.00 0.00 0.00 37 1020.0
20260501220001 50 0 0.0 0.0 0.00 0.00 0.00 37 1020.0
20260501215501 51 318 2.0 2.0 0.00 0.00 0.00 37 1020.0
20260501215000 51 304 1.0 1.0 0.00 0.00 0.00 36 1020.0
20260501214501 51 11 2.0 2.0 0.00 0.00 0.00 37 1020.0
20260501214000 51 0 0.0 0.0 0.00 0.00 0.00 37 1020.0
20260501213501 51 0 0.0 0.0 0.00 0.00 0.00 36 1020.0
20260501213000 52 323 4.0 4.0 0.00 0.00 0.00 37 1020.0
20260501212500 52 0 0.0 0.0 0.00 0.00 0.00 38 1020.0
20260501212000 51 317 1.0 1.0 0.00 0.00 0.00 38 1020.0
20260501211500 51 328 2.0 2.0 0.00 0.00 0.00 38 1020.0
20260501211000 51 0 0.0 0.0 0.00 0.00 0.00 36 1020.0
20260501210500 52 294 2.0 2.0 0.00 0.00 0.00 35 1020.0
20260501210000 52 49 1.0 1.0 0.00 0.00 0.00 36 1020.0
20260501205501 53 355 1.0 1.0 0.00 0.00 0.00 38 1020.0
20260501205000 52 0 0.0 0.0 0.00 0.00 0.00 38 1020.0
20260501204500 51 0 0.0 0.0 0.00 0.00 0.00 38 1020.0
20260501204000 51 0 0.0 0.0 0.00 0.00 0.00 37 1020.3
20260501203500 51 0 0.0 0.0 0.00 0.00 0.00 39 1020.3
20260501203001 51 0 0.0 0.0 0.00 0.00 0.00 37 1020.3
20260501202500 51 56 1.0 1.0 0.00 0.00 0.00 38 1020.3
20260501202000 52 0 0.0 0.0 0.00 0.00 0.00 38 1020.3
20260501201500 52 0 0.0 0.0 0.00 0.00 0.00 37 1020.3
20260501201000 52 69 3.0 3.0 0.00 0.00 0.00 38 1020.3
20260501200501 52 42 2.0 2.0 0.00 0.00 0.00 40 1020.3